Weather History for KESC - September, 2013

Change the Weather History Date:

Tuesday, September 3, 2013

  Actual Average Record
Temperature  
Mean Temperature 60 °F -  
Max Temperature 75 °F 69 °F 85 °F (1976)
Min Temperature 46 °F 54 °F 39 °F (1974)
Degree Days  
Heating Degree Days 4    
Growing Degree Days 10 (Base 50)    
Moisture  
Dew Point 49 °F    
Average Humidity 69    
Maximum Humidity 93    
Minimum Humidity 41    
Precipitation  
Precipitation 0.00 in - - ()
Sea Level Pressure  
Sea Level Pressure 29.96 in    
Wind  
Wind Speed 8 mph (West)    
Max Wind Speed 14 mph    
Max Gust Speed 22 mph    
Averages and records for this station are not official NWS values.
T = Trace of Precipitation, MM = Missing Value Source: NWS Daily Summary

Daily Weather History Graph

Daily Weather History Graph

Search for Another Location

Airport or City:

Trip Planner

Search our weather history database for the weather conditions in past years. The results will help you decide how hot, cold, wet, or windy it might be!

Date:

Astronomy

Sep. 03, 2013 Rise Set
Actual Time 7:12 AM EDT 8:22 PM EDT
Civil Twilight 6:41 AM EDT 8:52 PM EDT
Nautical Twilight 6:04 AM EDT 9:29 PM EDT
Astronomical Twilight 5:25 AM EDT 10:07 PM EDT
Moon 5:22 AM EDT (9/3) 7:10 PM EDT (9/3)
Length of Visible Light 14h 10m
Length of Day
13h 09m
Waning Crescent, 3% of the Moon is Illuminated
Sep 3
Waning Crescent
Sep 5
New
Sep 12
First Quarter
Sep 19
Full
Sep 26
Last Quarter

Hourly Weather History & Observations

Time (EDT) Temp. Windchill Dew Point Humidity Pressure Visibility Wind Dir Wind Speed Gust Speed Precip Events Conditions
12:15 AM 51.8 °F - 46.4 °F 82% 29.98 in - WNW 8.1 mph - N/A   Clear
12:35 AM 51.8 °F - 46.4 °F 82% 29.98 in - WNW 8.1 mph - N/A   Clear
12:55 AM 51.8 °F - 46.4 °F 82% 29.98 in - WNW 8.1 mph - N/A   Clear
1:15 AM 51.8 °F - 46.4 °F 82% 29.97 in - WNW 8.1 mph - N/A   Clear
1:35 AM 51.8 °F - 46.4 °F 82% 29.97 in - WNW 6.9 mph - N/A   Clear
1:55 AM 51.8 °F - 46.4 °F 82% 29.97 in - WNW 6.9 mph - N/A   Clear
2:15 AM 51.8 °F - 46.4 °F 82% 29.97 in - WNW 9.2 mph - N/A   Clear
2:35 AM 51.8 °F - 46.4 °F 82% 29.97 in - NW 9.2 mph - N/A   Clear
2:55 AM 51.8 °F - 46.4 °F 82% 29.97 in - WNW 8.1 mph - N/A   Clear
3:15 AM 50.0 °F - 46.4 °F 87% 29.98 in - WNW 8.1 mph - N/A   Unknown
3:35 AM 50.0 °F - 46.4 °F 87% 29.98 in - WNW 6.9 mph - N/A   Unknown
3:55 AM 48.2 °F - 46.4 °F 93% 29.98 in - WNW 6.9 mph - N/A   Unknown
4:15 AM 48.2 °F - 44.6 °F 87% 29.98 in - WNW 6.9 mph - N/A   Unknown
4:35 AM 48.2 °F - 46.4 °F 93% 29.98 in - WNW 8.1 mph - N/A   Unknown
4:55 AM 48.2 °F - 44.6 °F 87% 29.98 in - WNW 6.9 mph - N/A   Unknown
5:15 AM 48.2 °F - 44.6 °F 87% 29.98 in - WNW 6.9 mph - N/A   Unknown
5:35 AM 48.2 °F - 44.6 °F 87% 29.98 in - WNW 6.9 mph - N/A   Unknown
5:55 AM 48.2 °F - 44.6 °F 87% 29.98 in - WNW 8.1 mph - N/A   Unknown
6:15 AM 48.2 °F - 44.6 °F 87% 29.98 in - WNW 6.9 mph - N/A   Unknown
6:35 AM 46.4 °F 43.5 °F 44.6 °F 93% 29.98 in - WNW 5.8 mph - N/A   Unknown
6:55 AM 46.4 °F 42.9 °F 44.6 °F 93% 29.99 in - West 6.9 mph - N/A   Unknown
7:15 AM 46.4 °F 43.5 °F 44.6 °F 93% 29.99 in - WNW 5.8 mph - N/A   Unknown
7:35 AM 46.4 °F 42.9 °F 44.6 °F 93% 30.00 in - WNW 6.9 mph - N/A   Unknown
7:55 AM 48.2 °F - 46.4 °F 93% 30.01 in - WNW 5.8 mph - N/A   Unknown
8:15 AM 50.0 °F - 46.4 °F 87% 30.01 in - WNW 6.9 mph - N/A   Unknown
8:35 AM 51.8 °F - 48.2 °F 88% 30.01 in - WNW 5.8 mph - N/A   Unknown
8:55 AM 53.6 °F - 48.2 °F 82% 30.02 in - WNW 6.9 mph - N/A   Clear
9:15 AM 55.4 °F - 50.0 °F 82% 30.01 in - WNW 6.9 mph - N/A   Clear
9:35 AM 57.2 °F - 51.8 °F 82% 30.02 in - NW 5.8 mph - N/A   Clear
9:55 AM 57.2 °F - 51.8 °F 82% 30.01 in - NW 5.8 mph - N/A   Clear
10:15 AM 60.8 °F - 51.8 °F 72% 30.02 in - WNW 5.8 mph - N/A   Clear
10:35 AM 62.6 °F - 51.8 °F 68% 30.02 in - West 8.1 mph - N/A   Clear
10:55 AM 64.4 °F - 51.8 °F 64% 30.01 in - West 10.4 mph - N/A   Clear
11:15 AM 64.4 °F - 50.0 °F 59% 30.01 in - NW 10.4 mph - N/A   Clear
11:35 AM 66.2 °F - 51.8 °F 60% 30.01 in - West 10.4 mph - N/A   Clear
11:55 AM 66.2 °F - 51.8 °F 60% 30.01 in - WNW 11.5 mph - N/A   Clear
12:15 PM 68.0 °F - 50.0 °F 52% 30.01 in - WNW 6.9 mph 16.1 mph N/A   Clear
12:35 PM 68.0 °F - 50.0 °F 52% 29.99 in - WSW 11.5 mph 16.1 mph N/A   Clear
12:55 PM 69.8 °F - 50.0 °F 49% 29.99 in - West 9.2 mph - N/A   Clear
1:15 PM 69.8 °F - 48.2 °F 46% 29.99 in - West 10.4 mph 16.1 mph N/A   Clear
1:35 PM 69.8 °F - 51.8 °F 53% 29.98 in - West 9.2 mph 17.3 mph N/A   Clear
1:55 PM 71.6 °F - 50.0 °F 46% 29.96 in - WSW 10.4 mph 17.3 mph N/A   Clear
2:15 PM 71.6 °F - 50.0 °F 46% 29.96 in - WNW 13.8 mph 19.6 mph N/A   Clear
2:35 PM 71.6 °F - 50.0 °F 46% 29.96 in - West 12.7 mph - N/A   Clear
2:55 PM 73.4 °F - 51.8 °F 47% 29.96 in - West 9.2 mph - N/A   Clear
3:15 PM 73.4 °F - 51.8 °F 47% 29.95 in - WSW 13.8 mph 20.7 mph N/A   Clear
3:35 PM 73.4 °F - 51.8 °F 47% 29.94 in - West 12.7 mph 21.9 mph N/A   Clear
3:55 PM 73.4 °F - 51.8 °F 47% 29.93 in - West 12.7 mph - N/A   Clear
4:15 PM 73.4 °F - 51.8 °F 47% 29.93 in - West 11.5 mph - N/A   Clear
4:35 PM 75.2 °F - 51.8 °F 44% 29.93 in - West 13.8 mph 18.4 mph N/A   Clear
4:55 PM 75.2 °F - 51.8 °F 44% 29.92 in - West 13.8 mph 17.3 mph N/A   Clear
5:15 PM 75.2 °F - 50.0 °F 41% 29.91 in - West 13.8 mph 18.4 mph N/A   Clear
5:35 PM 75.2 °F - 50.0 °F 41% 29.91 in - West 12.7 mph - N/A   Clear
5:55 PM 75.2 °F - 50.0 °F 41% 29.91 in - WSW 11.5 mph - N/A   Clear
6:15 PM 75.2 °F - 50.0 °F 41% 29.91 in - West 9.2 mph - N/A   Clear
6:35 PM 75.2 °F - 51.8 °F 44% 29.90 in - WSW 11.5 mph - N/A   Clear
6:55 PM 73.4 °F - 50.0 °F 44% 29.90 in - WSW 10.4 mph - N/A   Clear
7:15 PM 73.4 °F - 51.8 °F 47% 29.90 in - WSW 8.1 mph - N/A   Clear
7:35 PM 71.6 °F - 51.8 °F 50% 29.90 in - WSW 5.8 mph - N/A   Clear
7:55 PM 71.6 °F - 51.8 °F 50% 29.90 in - SW 6.9 mph - N/A   Clear
8:15 PM 69.8 °F - 51.8 °F 53% 29.91 in - SW 5.8 mph - N/A   Clear
8:35 PM 64.4 °F - 51.8 °F 64% 29.91 in - SW 5.8 mph - N/A   Clear
8:55 PM 62.6 °F - 51.8 °F 68% 29.91 in - SW 4.6 mph - N/A   Clear
9:15 PM 60.8 °F - 51.8 °F 72% 29.91 in - WSW 5.8 mph - N/A   Clear
9:35 PM 60.8 °F - 51.8 °F 72% 29.91 in - WSW 5.8 mph - N/A   Clear
9:55 PM 59.0 °F - 51.8 °F 77% 29.91 in - WSW 5.8 mph - N/A   Clear
10:15 PM 60.8 °F - 51.8 °F 72% 29.92 in - West 4.6 mph - N/A   Clear
10:35 PM 59.0 °F - 51.8 °F 77% 29.92 in - WSW 5.8 mph - N/A   Clear
10:55 PM 57.2 °F - 51.8 °F 82% 29.92 in - WSW 4.6 mph - N/A   Clear
11:15 PM 59.0 °F - 51.8 °F 77% 29.91 in - WSW 3.5 mph - N/A   Clear
11:35 PM 57.2 °F - 51.8 °F 82% 29.91 in - SW 4.6 mph - N/A   Clear
11:55 PM 57.2 °F - 51.8 °F 82% 29.91 in - SW 3.5 mph - N/A   Clear